Location: Mentone
(34.5413°N, 85.5351°W)
Time: 01:51:48
(UTC-05:00)

A-11 Canister half - Visible Passes

Search period start: 27 April 2018 00:00
Search period end: 07 May 2018 00:00
Orbit: 1525 x 1684 km, 47.3° (Epoch: 26 April)

Date Brightness Start Highest point End Pass type
(mag) Time Alt. Az. Time Alt. Az. Time Alt. Az.
27 Apr 10.1 01:48:21 10° WNW 01:57:39 40° N 02:07:05 10° ENE visible
27 Apr 9.9 03:55:07 10° NW 04:04:55 50° NNE 04:14:41 10° E visible
27 Apr 9.2 21:15:30 10° SSW 21:24:25 43° SE 21:33:36 10° ENE visible
27 Apr 9.2 23:19:25 10° WSW 23:29:13 69° NNW 23:39:20 10° NE visible
28 Apr 10.1 01:26:38 10° WNW 01:35:55 41° N 01:45:22 10° ENE visible
28 Apr 9.9 03:33:27 10° NW 03:43:12 49° NNE 03:52:56 10° E visible
28 Apr 9.3 20:54:04 10° SSW 21:02:51 41° SE 21:11:53 10° ENE visible
28 Apr 9.2 22:57:46 10° WSW 23:07:33 71° NNW 23:17:40 10° NE visible
29 Apr 10.1 01:04:54 10° WNW 01:14:11 41° N 01:23:38 10° ENE visible
29 Apr 10.0 03:11:46 10° NW 03:21:29 48° NNE 03:31:12 10° E visible
29 Apr 9.2 05:17:13 10° NW 05:27:26 82° SW 05:37:30 10° SE visible
29 Apr 9.4 20:32:39 10° SSW 20:41:17 38° SE 20:50:09 10° ENE visible
29 Apr 9.2 22:36:08 10° WSW 22:45:54 74° NNW 22:56:01 10° NE visible
30 Apr 10.1 00:43:10 10° WNW 00:52:26 41° N 01:01:54 10° ENE visible
30 Apr 10.0 02:50:06 10° NW 02:59:45 47° NNE 03:09:26 10° E visible
30 Apr 9.2 04:55:34 10° NW 05:05:48 85° SW 05:15:55 10° SE visible
30 Apr 9.5 20:11:16 10° SSW 20:19:43 36° SE 20:28:24 10° ENE visible
30 Apr 9.1 22:14:29 10° WSW 22:24:14 77° NNW 22:34:21 10° NE visible
01 May 10.0 00:21:26 10° WNW 00:30:42 42° N 00:40:12 10° ENE visible
01 May 10.0 02:28:25 10° NW 02:38:02 46° NNE 02:47:42 10° E visible
01 May 9.2 04:33:55 10° NW 04:44:09 88° SW 04:54:17 10° SE visible
01 May 9.6 19:49:53 10° S 19:58:09 34° SE 20:06:38 10° ENE visible
01 May 9.1 21:52:52 10° WSW 22:02:36 79° NNW 22:12:41 10° NE visible
01 May 10.0 23:59:42 10° W 00:08:59 42° N 00:18:28 10° ENE visible
02 May 10.0 02:06:46 10° WNW 02:16:18 45° NNE 02:25:56 10° E visible
02 May 9.2 04:12:16 10° NW 04:22:30 89° NE 04:32:40 10° SE visible
02 May 9.1 21:31:15 10° WSW 21:40:57 82° NW 21:51:03 10° NE visible
02 May 10.0 23:37:59 10° W 23:47:15 43° NNW 23:56:45 10° ENE visible
03 May 10.0 01:45:05 10° WNW 01:54:35 44° NNE 02:04:10 10° E visible
03 May 9.2 03:50:38 10° NW 04:00:51 85° NE 04:11:02 10° SE visible
03 May 9.1 21:09:38 10° SW 21:19:19 85° NW 21:29:23 10° NE visible
03 May 10.0 23:16:16 10° W 23:25:31 44° NNW 23:35:04 10° ENE visible
04 May 10.0 01:23:24 10° WNW 01:32:51 43° NNE 01:42:24 10° E visible
04 May 9.2 03:28:59 10° NW 03:39:12 82° NE 03:49:23 10° ESE visible
04 May 9.1 20:48:02 10° SW 20:57:41 89° NW 21:07:44 10° NE visible
04 May 10.0 22:54:32 10° W 23:03:48 44° NNW 23:13:21 10° ENE visible
05 May 10.1 01:01:44 10° WNW 01:11:07 42° NNE 01:20:38 10° E visible
05 May 9.2 03:07:20 10° NW 03:17:32 80° NE 03:27:43 10° ESE visible
05 May 9.6 05:13:17 10° WNW 05:22:07 35° SW 05:30:53 10° S visible
05 May 9.1 20:26:26 10° SW 20:36:04 88° SE 20:46:04 10° NE visible
05 May 10.0 22:32:49 10° W 22:42:05 45° NNW 22:51:39 10° NE visible
06 May 10.1 00:40:02 10° WNW 00:49:22 42° N 00:58:52 10° E visible
06 May 9.2 02:45:43 10° NW 02:55:52 77° NNE 03:06:04 10° ESE visible
06 May 9.5 04:51:33 10° WNW 05:00:32 37° SW 05:09:28 10° SSE visible
06 May 9.1 20:04:52 10° SW 20:14:26 85° SE 20:24:24 10° NE visible
06 May 10.0 22:11:07 10° W 22:20:23 46° NNW 22:29:58 10° NE visible
